User: anonymous   Login
Location: Hepcat Sky Observatory
(29.9800°N, 95.6500°W)
Time: 05:49:51
(UTC-06:00)
Language:

Cosmos 1602 Rocket - Orbit

View from above orbital plane
View from above orbital plane
View from above satellite
View from above satellite

Ground track
Ground track

The orbit data is extracted from the following two-line orbital elements,

1 15332U 84105B   16342.71356694  .00000119  00000-0  11610-4 0  9993
2 15332  82.5343   7.0484 0019640 282.7160 199.5872 14.83279959738208
Epoch (UTC): 07 December 2016 17:07:32
Eccentricity: 0.0019640
inclination: 82.5343°
perigee height: 605 km
apogee height: 633 km
right ascension of ascending node: 7.0484°
argument of perigee: 282.7160°
revolutions per day: 14.83279959
mean anomaly at epoch: 199.5872°
orbit number at epoch: 73820

The dashed part of the orbit path shows where the satellite is in the earth's shadow,  

DLR